Time,TemperatureF,DewpointF,PressureIn,WindDirection,WindDirectionDegrees,WindSpeedMPH,WindSpeedGustMPH,Humidity,HourlyPrecipIn,Conditions,Clouds,dailyrainin,SoftwareType,DateUTC
2013-02-09 00:00:00,58.1,57.0,30.06,SSW,201,0.0,0.0,96,0.00,,CLR,0.00,VWS V14.01,2013-02-09 05:00:00,
2013-02-09 00:01:00,58.0,56.9,30.06,SSW,201,0.0,0.0,96,0.00,,CLR,0.00,VWS V14.01,2013-02-09 05:01:00,
2013-02-09 00:03:00,58.0,56.9,30.06,SSW,201,0.0,0.0,96,0.00,,CLR,0.00,VWS V14.01,2013-02-09 05:03:00,
2013-02-09 00:08:00,57.7,56.6,30.06,SSW,201,0.0,0.0,96,0.00,,CLR,0.00,VWS V14.01,2013-02-09 05:08:00,
2013-02-09 00:13:00,57.4,56.3,30.06,SSW,202,0.0,0.0,96,0.00,,CLR,0.00,VWS V14.01,2013-02-09 05:13:00,
2013-02-09 00:19:00,57.2,56.1,30.06,SSW,201,0.0,0.0,96,0.00,,CLR,0.00,VWS V14.01,2013-02-09 05:19:00,
2013-02-09 00:24:00,56.9,55.8,30.06,SSW,201,0.0,0.0,96,0.00,,CLR,0.00,VWS V14.01,2013-02-09 05:24:00,
2013-02-09 00:29:00,56.7,55.6,30.06,SSW,201,0.0,0.0,96,0.00,,CLR,0.00,VWS V14.01,2013-02-09 05:29:00,
2013-02-09 00:34:00,56.5,55.4,30.06,SSW,201,0.0,0.0,96,0.00,,CLR,0.00,VWS V14.01,2013-02-09 05:34:00,
2013-02-09 00:39:00,56.4,55.3,30.06,SSW,201,0.0,0.0,96,0.00,,CLR,0.00,VWS V14.01,2013-02-09 05:39:00,
2013-02-09 00:44:00,56.2,55.1,30.06,SSW,201,0.0,0.0,96,0.00,,CLR,0.00,VWS V14.01,2013-02-09 05:44:00,
2013-02-09 00:49:00,56.1,55.0,30.06,SSW,201,0.0,0.0,96,0.00,,CLR,0.00,VWS V14.01,2013-02-09 05:49:00,
2013-02-09 00:54:00,55.9,54.8,30.06,SSW,201,0.0,0.0,96,0.00,,CLR,0.00,VWS V14.01,2013-02-09 05:54:00,
2013-02-09 00:59:00,55.7,54.6,30.06,SSW,201,0.0,0.0,96,0.00,,CLR,0.00,VWS V14.01,2013-02-09 05:59:00,
2013-02-09 01:04:00,55.6,54.5,30.06,SSW,201,0.0,0.0,96,0.00,,CLR,0.00,VWS V14.01,2013-02-09 06:04:00,
2013-02-09 01:09:00,55.7,54.9,30.06,SSW,201,0.0,0.0,97,0.00,,CLR,0.00,VWS V14.01,2013-02-09 06:09:00,
2013-02-09 01:15:00,55.5,54.7,30.06,SSW,201,0.0,0.0,97,0.00,,CLR,0.00,VWS V14.01,2013-02-09 06:15:00,
2013-02-09 01:20:00,55.5,54.7,30.06,SSW,201,0.0,0.0,97,0.00,,CLR,0.00,VWS V14.01,2013-02-09 06:20:00,
2013-02-09 01:25:00,55.3,54.5,30.06,SSW,201,0.0,0.0,97,0.00,,CLR,0.00,VWS V14.01,2013-02-09 06:25:00,
2013-02-09 01:30:00,55.4,54.6,30.06,SSW,201,0.0,0.0,97,0.00,,CLR,0.00,VWS V14.01,2013-02-09 06:30:00,
2013-02-09 01:35:00,55.5,54.7,30.06,SSW,202,0.0,0.0,97,0.00,,CLR,0.00,VWS V14.01,2013-02-09 06:35:00,
2013-02-09 01:40:00,55.7,54.9,30.06,SSW,201,0.0,0.0,97,0.00,,CLR,0.00,VWS V14.01,2013-02-09 06:40:00,
2013-02-09 01:45:00,55.9,55.1,30.06,SSW,201,0.0,0.0,97,0.00,,CLR,0.00,VWS V14.01,2013-02-09 06:45:00,
2013-02-09 01:50:00,55.8,55.0,30.06,SSW,201,0.0,0.0,97,0.00,,CLR,0.00,VWS V14.01,2013-02-09 06:50:00,
2013-02-09 01:55:00,55.7,54.9,30.06,SSW,202,0.0,0.0,97,0.00,,CLR,0.00,VWS V14.01,2013-02-09 06:55:00,
2013-02-09 02:00:00,55.5,54.7,30.06,SSW,201,0.0,0.0,97,0.00,,CLR,0.00,VWS V14.01,2013-02-09 07:00:00,
2013-02-09 02:06:00,55.4,54.6,30.07,SSW,201,0.0,0.0,97,0.00,,CLR,0.00,VWS V14.01,2013-02-09 07:06:00,
2013-02-09 02:11:00,55.3,54.5,30.06,SSW,201,0.0,0.0,97,0.00,,CLR,0.00,VWS V14.01,2013-02-09 07:11:00,
2013-02-09 02:16:00,55.1,54.3,30.06,SSW,201,0.0,0.0,97,0.00,,CLR,0.00,VWS V14.01,2013-02-09 07:16:00,
2013-02-09 02:21:00,55.0,54.2,30.06,SSW,201,0.0,0.0,97,0.00,,CLR,0.00,VWS V14.01,2013-02-09 07:21:00,
2013-02-09 02:26:00,55.0,54.2,30.06,SSW,201,0.0,0.0,97,0.00,,CLR,0.00,VWS V14.01,2013-02-09 07:26:00,
2013-02-09 02:31:00,55.0,54.2,30.06,SSW,201,0.0,0.0,97,0.00,,CLR,0.00,VWS V14.01,2013-02-09 07:31:00,
2013-02-09 02:36:00,55.3,54.5,30.06,SSW,201,0.0,0.0,97,0.00,,CLR,0.00,VWS V14.01,2013-02-09 07:36:00,
2013-02-09 02:41:00,55.6,54.8,30.06,SSW,201,0.0,0.0,97,0.00,,CLR,0.00,VWS V14.01,2013-02-09 07:41:00,
2013-02-09 02:46:00,55.4,54.6,30.06,SSW,201,0.0,0.0,97,0.00,,CLR,0.00,VWS V14.01,2013-02-09 07:46:00,
2013-02-09 02:51:00,55.4,54.6,30.06,SSW,201,0.0,0.0,97,0.00,,CLR,0.00,VWS V14.01,2013-02-09 07:51:00,
2013-02-09 02:56:00,55.3,54.5,30.06,SSW,201,0.0,0.0,97,0.00,,CLR,0.00,VWS V14.01,2013-02-09 07:56:00,
2013-02-09 03:01:00,55.1,54.3,30.06,SSW,201,0.0,0.0,97,0.00,,CLR,0.00,VWS V14.01,2013-02-09 08:01:00,
2013-02-09 03:07:00,55.0,54.2,30.06,SSW,201,0.0,0.0,97,0.00,,CLR,0.00,VWS V14.01,2013-02-09 08:07:00,
2013-02-09 03:12:00,55.1,54.3,30.07,SSW,201,0.0,0.0,97,0.00,,CLR,0.00,VWS V14.01,2013-02-09 08:12:00,
2013-02-09 03:17:00,55.1,54.3,30.07,SSW,205,0.0,0.0,97,0.00,,CLR,0.00,VWS V14.01,2013-02-09 08:17:00,
2013-02-09 03:22:00,55.1,54.3,30.07,SSW,206,0.0,0.0,97,0.00,,CLR,0.00,VWS V14.01,2013-02-09 08:22:00,
2013-02-09 03:27:00,55.1,54.3,30.07,NE,47,0.0,0.0,97,0.00,,CLR,0.00,VWS V14.01,2013-02-09 08:27:00,
2013-02-09 03:32:00,55.0,54.2,30.07,East,84,0.0,0.0,97,0.00,,CLR,0.00,VWS V14.01,2013-02-09 08:32:00,
2013-02-09 03:37:00,55.0,54.2,30.07,West,268,0.0,1.0,97,0.00,,CLR,0.00,VWS V14.01,2013-02-09 08:37:00,
2013-02-09 03:42:00,55.0,54.2,30.07,West,273,0.0,1.0,97,0.00,,CLR,0.00,VWS V14.01,2013-02-09 08:42:00,
2013-02-09 03:47:00,55.1,54.3,30.07,WNW,283,1.0,1.0,97,0.00,,CLR,0.00,VWS V14.01,2013-02-09 08:47:00,
2013-02-09 03:52:00,55.2,54.4,30.07,West,281,0.0,1.0,97,0.00,,CLR,0.00,VWS V14.01,2013-02-09 08:52:00,
2013-02-09 03:58:00,55.3,54.2,30.07,NW,309,0.0,1.0,96,0.00,,CLR,0.00,VWS V14.01,2013-02-09 08:58:00,
2013-02-09 04:03:00,55.4,54.0,30.07,North,350,0.0,1.0,95,0.00,,CLR,0.00,VWS V14.01,2013-02-09 09:03:00,
2013-02-09 04:08:00,55.6,53.9,30.08,WNW,295,0.0,1.0,94,0.00,,CLR,0.00,VWS V14.01,2013-02-09 09:08:00,
2013-02-09 04:13:00,55.7,54.0,30.08,West,270,0.0,1.0,94,0.00,,CLR,0.00,VWS V14.01,2013-02-09 09:13:00,
2013-02-09 04:18:00,55.8,53.8,30.08,WNW,293,0.0,2.0,93,0.00,,CLR,0.00,VWS V14.01,2013-02-09 09:18:00,
2013-02-09 04:23:00,55.8,53.8,30.08,SSW,203,0.0,2.0,93,0.00,,CLR,0.00,VWS V14.01,2013-02-09 09:23:00,
2013-02-09 04:28:00,55.7,53.4,30.08,NNE,20,0.0,2.0,92,0.00,,CLR,0.00,VWS V14.01,2013-02-09 09:28:00,
2013-02-09 04:33:00,55.7,53.4,30.08,WNW,287,0.0,2.0,92,0.00,,CLR,0.00,VWS V14.01,2013-02-09 09:33:00,
2013-02-09 04:38:00,55.7,53.4,30.08,WSW,257,0.0,1.0,92,0.00,,CLR,0.00,VWS V14.01,2013-02-09 09:38:00,
2013-02-09 04:43:00,55.7,53.4,30.08,NNW,343,0.0,1.0,92,0.00,,CLR,0.00,VWS V14.01,2013-02-09 09:43:00,
2013-02-09 04:49:00,55.7,53.4,30.08,NE,45,0.0,1.0,92,0.00,,CLR,0.00,VWS V14.01,2013-02-09 09:49:00,
2013-02-09 04:54:00,55.6,53.3,30.08,WNW,298,0.0,1.0,92,0.00,,CLR,0.00,VWS V14.01,2013-02-09 09:54:00,
2013-02-09 04:59:00,55.6,53.3,30.08,NNW,341,0.0,2.0,92,0.00,,CLR,0.00,VWS V14.01,2013-02-09 09:59:00,
2013-02-09 05:04:00,55.5,53.2,30.08,NNE,25,2.0,3.0,92,0.00,,CLR,0.00,VWS V14.01,2013-02-09 10:04:00,
2013-02-09 05:09:00,55.5,53.2,30.09,NNE,22,0.0,1.0,92,0.00,,CLR,0.00,VWS V14.01,2013-02-09 10:09:00,
2013-02-09 05:14:00,55.5,53.2,30.09,NNE,32,0.0,1.0,92,0.00,,CLR,0.00,VWS V14.01,2013-02-09 10:14:00,
2013-02-09 05:19:00,55.5,53.2,30.09,WNW,300,0.0,3.0,92,0.00,,CLR,0.00,VWS V14.01,2013-02-09 10:19:00,
2013-02-09 05:24:00,55.5,53.2,30.09,West,281,0.0,3.0,92,0.00,,CLR,0.00,VWS V14.01,2013-02-09 10:24:00,
2013-02-09 05:29:00,55.5,53.2,30.09,WNW,295,0.0,3.0,92,0.00,,CLR,0.00,VWS V14.01,2013-02-09 10:29:00,
2013-02-09 05:34:00,55.5,53.2,30.10,NE,43,0.0,1.0,92,0.00,,CLR,0.00,VWS V14.01,2013-02-09 10:34:00,
2013-02-09 05:40:00,55.5,53.2,30.10,WSW,249,0.0,2.0,92,0.00,,CLR,0.00,VWS V14.01,2013-02-09 10:40:00,
2013-02-09 05:45:00,55.4,53.1,30.10,NW,315,0.0,2.0,92,0.00,,CLR,0.00,VWS V14.01,2013-02-09 10:45:00,
2013-02-09 05:50:00,55.4,53.1,30.10,East,81,0.0,2.0,92,0.00,,CLR,0.00,VWS V14.01,2013-02-09 10:50:00,
2013-02-09 05:55:00,55.4,53.1,30.11,ESE,112,0.0,2.0,92,0.00,,CLR,0.00,VWS V14.01,2013-02-09 10:55:00,
2013-02-09 06:00:00,55.4,53.1,30.11,West,260,0.0,2.0,92,0.00,,CLR,0.00,VWS V14.01,2013-02-09 11:00:00,
2013-02-09 06:05:00,55.3,53.0,30.11,West,281,0.0,1.0,92,0.00,,CLR,0.00,VWS V14.01,2013-02-09 11:05:00,
2013-02-09 06:10:00,55.3,53.0,30.11,WNW,297,0.0,1.0,92,0.00,,CLR,0.00,VWS V14.01,2013-02-09 11:10:00,
2013-02-09 06:15:00,55.2,52.9,30.11,NNW,329,0.0,2.0,92,0.00,,CLR,0.00,VWS V14.01,2013-02-09 11:15:00,
2013-02-09 06:20:00,55.1,52.8,30.11,ESE,110,0.0,2.0,92,0.00,,CLR,0.00,VWS V14.01,2013-02-09 11:20:00,
2013-02-09 06:25:00,55.0,52.7,30.11,West,277,0.0,2.0,92,0.00,,CLR,0.00,VWS V14.01,2013-02-09 11:25:00,
2013-02-09 06:31:00,55.0,53.0,30.12,NW,314,0.0,2.0,93,0.00,,CLR,0.00,VWS V14.01,2013-02-09 11:31:00,
2013-02-09 06:36:00,54.9,52.9,30.12,ESE,113,0.0,0.0,93,0.00,,CLR,0.00,VWS V14.01,2013-02-09 11:36:00,
2013-02-09 06:41:00,54.9,52.9,30.12,West,276,0.0,5.0,93,0.00,,CLR,0.00,VWS V14.01,2013-02-09 11:41:00,
2013-02-09 06:46:00,54.8,52.8,30.12,West,266,0.0,5.0,93,0.00,,CLR,0.00,VWS V14.01,2013-02-09 11:46:00,
2013-02-09 06:51:00,54.7,52.7,30.13,NW,307,0.0,5.0,93,0.00,,CLR,0.00,VWS V14.01,2013-02-09 11:51:00,
2013-02-09 06:56:00,54.6,52.6,30.12,SSW,212,0.0,5.0,93,0.00,,CLR,0.00,VWS V14.01,2013-02-09 11:56:00,
2013-02-09 07:01:00,54.5,52.5,30.12,SW,226,0.0,5.0,93,0.00,,CLR,0.00,VWS V14.01,2013-02-09 12:01:00,
2013-02-09 07:06:00,54.5,52.5,30.13,WSW,245,0.0,0.0,93,0.00,,CLR,0.00,VWS V14.01,2013-02-09 12:06:00,
2013-02-09 07:11:00,54.4,52.7,30.13,East,82,0.0,1.0,94,0.00,,CLR,0.00,VWS V14.01,2013-02-09 12:11:00,
2013-02-09 07:16:00,54.3,52.6,30.13,ENE,74,0.0,1.0,94,0.00,,CLR,0.00,VWS V14.01,2013-02-09 12:16:00,
2013-02-09 07:22:00,54.3,52.6,30.14,NNE,13,0.0,1.0,94,0.00,,CLR,0.00,VWS V14.01,2013-02-09 12:22:00,
2013-02-09 07:27:00,54.3,52.6,30.14,West,281,1.0,2.0,94,0.00,,CLR,0.00,VWS V14.01,2013-02-09 12:27:00,
2013-02-09 07:32:00,54.4,52.7,30.14,WNW,290,0.0,2.0,94,0.00,,CLR,0.00,VWS V14.01,2013-02-09 12:32:00,
2013-02-09 07:37:00,54.5,52.8,30.14,SW,219,0.0,1.0,94,0.00,,CLR,0.00,VWS V14.01,2013-02-09 12:37:00,
2013-02-09 07:42:00,54.6,52.9,30.15,WNW,295,0.0,2.0,94,0.00,,CLR,0.00,VWS V14.01,2013-02-09 12:42:00,
2013-02-09 07:47:00,54.7,53.0,30.15,WNW,291,0.0,2.0,94,0.00,,CLR,0.00,VWS V14.01,2013-02-09 12:47:00,
2013-02-09 07:52:00,54.9,53.2,30.15,WNW,293,0.0,2.0,94,0.00,,CLR,0.00,VWS V14.01,2013-02-09 12:52:00,
2013-02-09 07:57:00,55.0,53.3,30.15,WNW,295,0.0,2.0,94,0.00,,CLR,0.00,VWS V14.01,2013-02-09 12:57:00,
2013-02-09 08:02:00,55.3,53.6,30.15,WNW,300,0.0,2.0,94,0.00,,CLR,0.00,VWS V14.01,2013-02-09 13:02:00,
2013-02-09 08:07:00,55.5,53.5,30.15,NW,322,0.0,1.0,93,0.00,,CLR,0.00,VWS V14.01,2013-02-09 13:07:00,
2013-02-09 08:13:00,55.8,53.8,30.15,North,8,0.0,1.0,93,0.00,,CLR,0.00,VWS V14.01,2013-02-09 13:13:00,
2013-02-09 08:18:00,56.1,54.1,30.16,NW,316,0.0,1.0,93,0.00,,CLR,0.00,VWS V14.01,2013-02-09 13:18:00,
2013-02-09 08:23:00,56.4,54.4,30.16,SW,222,0.0,1.0,93,0.00,,CLR,0.00,VWS V14.01,2013-02-09 13:23:00,
2013-02-09 08:28:00,56.8,54.8,30.16,West,267,0.0,2.0,93,0.00,,CLR,0.00,VWS V14.01,2013-02-09 13:28:00,
2013-02-09 08:33:00,57.2,54.9,30.16,WNW,297,0.0,3.0,92,0.00,,CLR,0.00,VWS V14.01,2013-02-09 13:33:00,
2013-02-09 08:38:00,57.8,55.2,30.16,NE,40,0.0,3.0,91,0.00,,CLR,0.00,VWS V14.01,2013-02-09 13:38:00,
2013-02-09 08:43:00,58.3,55.7,30.16,West,280,0.0,3.0,91,0.00,,CLR,0.00,VWS V14.01,2013-02-09 13:43:00,
2013-02-09 08:48:00,58.8,55.9,30.16,West,276,0.0,3.0,90,0.00,,CLR,0.00,VWS V14.01,2013-02-09 13:48:00,
2013-02-09 08:53:00,59.4,56.2,30.17,NE,43,0.0,3.0,89,0.00,,CLR,0.00,VWS V14.01,2013-02-09 13:53:00,
2013-02-09 08:59:00,59.9,56.3,30.17,NNW,343,0.0,3.0,88,0.00,,CLR,0.00,VWS V14.01,2013-02-09 13:59:00,
2013-02-09 09:04:00,60.6,56.7,30.17,North,350,0.0,3.0,87,0.00,,CLR,0.00,VWS V14.01,2013-02-09 14:04:00,
2013-02-09 09:09:00,61.3,57.1,30.18,ENE,78,0.0,0.0,86,0.00,,CLR,0.00,VWS V14.01,2013-02-09 14:09:00,
2013-02-09 09:14:00,61.8,57.2,30.17,WNW,283,2.0,2.0,85,0.00,,CLR,0.00,VWS V14.01,2013-02-09 14:14:00,
2013-02-09 09:19:00,62.1,57.5,30.17,West,278,0.0,3.0,85,0.00,,CLR,0.00,VWS V14.01,2013-02-09 14:19:00,
2013-02-09 09:24:00,62.8,57.9,30.18,North,5,0.0,3.0,84,0.00,,CLR,0.00,VWS V14.01,2013-02-09 14:24:00,
2013-02-09 09:29:00,63.0,57.4,30.18,NE,44,0.0,3.0,82,0.00,,CLR,0.00,VWS V14.01,2013-02-09 14:29:00,
2013-02-09 09:34:00,63.4,57.8,30.18,NW,315,0.0,0.0,82,0.00,,CLR,0.00,VWS V14.01,2013-02-09 14:34:00,
2013-02-09 09:39:00,63.9,58.0,30.18,East,101,1.0,3.0,81,0.00,,CLR,0.00,VWS V14.01,2013-02-09 14:39:00,
2013-02-09 09:45:00,64.4,58.8,30.18,NW,309,0.0,3.0,82,0.00,,CLR,0.00,VWS V14.01,2013-02-09 14:45:00,
2013-02-09 09:50:00,65.2,58.9,30.18,East,79,0.0,3.0,80,0.00,,CLR,0.00,VWS V14.01,2013-02-09 14:50:00,
2013-02-09 09:55:00,65.5,58.5,30.18,West,278,2.0,3.0,78,0.00,,CLR,0.00,VWS V14.01,2013-02-09 14:55:00,
2013-02-09 10:00:00,65.7,58.3,30.18,WNW,297,3.0,3.0,77,0.00,,CLR,0.00,VWS V14.01,2013-02-09 15:00:00,
2013-02-09 10:05:00,66.1,58.7,30.18,West,267,0.0,1.0,77,0.00,,CLR,0.00,VWS V14.01,2013-02-09 15:05:00,
2013-02-09 10:10:00,66.6,59.2,30.19,SSE,156,0.0,2.0,77,0.00,,CLR,0.00,VWS V14.01,2013-02-09 15:10:00,
2013-02-09 10:15:00,67.3,59.8,30.18,West,281,1.0,2.0,77,0.00,,CLR,0.00,VWS V14.01,2013-02-09 15:15:00,
2013-02-09 10:20:00,67.7,59.5,30.18,SSE,165,0.0,2.0,75,0.00,,CLR,0.00,VWS V14.01,2013-02-09 15:20:00,
2013-02-09 10:26:00,68.0,59.4,30.18,NNE,16,0.0,3.0,74,0.00,,CLR,0.00,VWS V14.01,2013-02-09 15:26:00,
2013-02-09 10:31:00,67.9,59.3,30.19,SSW,208,2.0,3.0,74,0.00,,CLR,0.00,VWS V14.01,2013-02-09 15:31:00,
2013-02-09 10:36:00,68.3,59.7,30.18,East,90,2.0,2.0,74,0.00,,CLR,0.00,VWS V14.01,2013-02-09 15:36:00,
2013-02-09 10:41:00,68.9,59.5,30.18,WNW,293,0.0,4.0,72,0.00,,CLR,0.00,VWS V14.01,2013-02-09 15:41:00,
2013-02-09 10:46:00,68.9,59.1,30.18,West,277,0.0,4.0,71,0.00,,CLR,0.00,VWS V14.01,2013-02-09 15:46:00,
2013-02-09 10:51:00,69.1,58.9,30.18,West,281,1.0,4.0,70,0.00,,CLR,0.00,VWS V14.01,2013-02-09 15:51:00,
2013-02-09 10:56:00,69.5,59.3,30.18,WSW,238,0.0,4.0,70,0.00,,CLR,0.00,VWS V14.01,2013-02-09 15:56:00,
2013-02-09 11:01:00,69.6,58.6,30.18,NW,311,0.0,4.0,68,0.00,,CLR,0.00,VWS V14.01,2013-02-09 16:01:00,
2013-02-09 11:07:00,69.9,58.9,30.18,WNW,287,1.0,2.0,68,0.00,,CLR,0.00,VWS V14.01,2013-02-09 16:07:00,
2013-02-09 11:12:00,70.7,60.0,30.18,ENE,59,0.0,2.0,69,0.00,,CLR,0.00,VWS V14.01,2013-02-09 16:12:00,
2013-02-09 11:17:00,71.1,59.2,30.18,SE,139,0.0,2.0,66,0.00,,CLR,0.00,VWS V14.01,2013-02-09 16:17:00,
2013-02-09 11:22:00,71.6,59.2,30.18,West,263,1.0,5.0,65,0.00,,CLR,0.00,VWS V14.01,2013-02-09 16:22:00,
2013-02-09 11:27:00,71.8,59.8,30.18,ESE,109,0.0,5.0,66,0.00,,CLR,0.00,VWS V14.01,2013-02-09 16:27:00,
2013-02-09 11:32:00,72.2,59.4,30.18,SSE,155,0.0,5.0,64,0.00,,CLR,0.00,VWS V14.01,2013-02-09 16:32:00,
2013-02-09 11:37:00,72.8,59.0,30.18,NNE,16,0.0,2.0,62,0.00,,CLR,0.00,VWS V14.01,2013-02-09 16:37:00,
2013-02-09 11:42:00,73.1,59.8,30.17,NE,52,0.0,2.0,63,0.00,,CLR,0.00,VWS V14.01,2013-02-09 16:42:00,
2013-02-09 11:47:00,73.4,59.2,30.18,NE,41,0.0,2.0,61,0.00,,CLR,0.00,VWS V14.01,2013-02-09 16:47:00,
2013-02-09 11:53:00,73.4,59.2,30.17,SW,234,0.0,2.0,61,0.00,,CLR,0.00,VWS V14.01,2013-02-09 16:53:00,
2013-02-09 11:58:00,73.4,59.2,30.17,SE,132,0.0,2.0,61,0.00,,CLR,0.00,VWS V14.01,2013-02-09 16:58:00,
2013-02-09 12:03:00,74.0,59.7,30.17,SW,229,0.0,2.0,61,0.00,,CLR,0.00,VWS V14.01,2013-02-09 17:03:00,
2013-02-09 12:08:00,74.1,58.9,30.17,West,277,0.0,2.0,59,0.00,,CLR,0.00,VWS V14.01,2013-02-09 17:08:00,
2013-02-09 12:13:00,74.5,60.2,30.17,SW,226,1.0,2.0,61,0.00,,CLR,0.00,VWS V14.01,2013-02-09 17:13:00,
2013-02-09 12:18:00,74.8,59.5,30.16,ENE,78,1.0,2.0,59,0.00,,CLR,0.00,VWS V14.01,2013-02-09 17:18:00,
2013-02-09 12:23:00,74.4,59.2,30.16,SSW,212,0.0,4.0,59,0.00,,CLR,0.00,VWS V14.01,2013-02-09 17:23:00,
2013-02-09 12:28:00,74.6,58.9,30.16,West,268,1.0,4.0,58,0.00,,CLR,0.00,VWS V14.01,2013-02-09 17:28:00,
2013-02-09 12:34:00,75.0,59.7,30.16,SW,231,0.0,4.0,59,0.00,,CLR,0.00,VWS V14.01,2013-02-09 17:34:00,
2013-02-09 12:39:00,75.6,59.3,30.16,WSW,242,0.0,2.0,57,0.00,,CLR,0.00,VWS V14.01,2013-02-09 17:39:00,
2013-02-09 12:44:00,75.3,58.5,30.16,NNE,26,0.0,3.0,56,0.00,,CLR,0.00,VWS V14.01,2013-02-09 17:44:00,
2013-02-09 12:49:00,75.4,59.6,30.15,West,281,0.0,4.0,58,0.00,,FEW028,0.00,VWS V14.01,2013-02-09 17:49:00,
2013-02-09 12:54:00,75.0,58.3,30.15,East,84,0.0,4.0,56,0.00,,FEW028,0.00,VWS V14.01,2013-02-09 17:54:00,
2013-02-09 12:59:00,74.9,58.7,30.15,SSE,162,0.0,4.0,57,0.00,,FEW028,0.00,VWS V14.01,2013-02-09 17:59:00,
2013-02-09 13:04:00,75.3,59.5,30.15,SE,145,0.0,0.0,58,0.00,,FEW028,0.00,VWS V14.01,2013-02-09 18:04:00,
2013-02-09 13:09:00,75.3,58.0,30.14,NE,40,2.0,3.0,55,0.00,,FEW028,0.00,VWS V14.01,2013-02-09 18:09:00,
2013-02-09 13:15:00,75.2,57.9,30.14,SW,233,1.0,3.0,55,0.00,,FEW028,0.00,VWS V14.01,2013-02-09 18:15:00,
2013-02-09 13:20:00,75.4,59.6,30.14,WSW,242,1.0,3.0,58,0.00,,FEW028,0.00,VWS V14.01,2013-02-09 18:20:00,
2013-02-09 13:25:00,75.1,57.3,30.14,NW,319,0.0,4.0,54,0.00,,FEW028,0.00,VWS V14.01,2013-02-09 18:25:00,
2013-02-09 13:30:00,74.9,58.2,30.14,West,281,1.0,4.0,56,0.00,,FEW028,0.00,VWS V14.01,2013-02-09 18:30:00,
2013-02-09 13:35:00,75.8,58.5,30.14,ESE,104,2.0,2.0,55,0.00,,FEW028,0.00,VWS V14.01,2013-02-09 18:35:00,
2013-02-09 13:40:00,75.9,58.1,30.14,East,79,0.0,4.0,54,0.00,,FEW028,0.00,VWS V14.01,2013-02-09 18:40:00,
2013-02-09 13:45:00,75.5,58.2,30.13,West,262,1.0,4.0,55,0.00,,FEW038,0.00,VWS V14.01,2013-02-09 18:45:00,
2013-02-09 13:50:00,76.3,58.5,30.14,West,274,0.0,4.0,54,0.00,,FEW038,0.00,VWS V14.01,2013-02-09 18:50:00,
2013-02-09 13:56:00,77.0,59.1,30.13,West,277,0.0,4.0,54,0.00,,FEW038,0.00,VWS V14.01,2013-02-09 18:56:00,
2013-02-09 14:01:00,77.4,58.4,30.13,WNW,289,0.0,4.0,52,0.00,,FEW038,0.00,VWS V14.01,2013-02-09 19:01:00,
2013-02-09 14:06:00,76.3,56.9,30.13,ENE,78,1.0,3.0,51,0.00,,FEW038,0.00,VWS V14.01,2013-02-09 19:06:00,
2013-02-09 14:11:00,74.7,57.0,30.13,WNW,285,2.0,5.0,54,0.00,,FEW038,0.00,VWS V14.01,2013-02-09 19:11:00,
2013-02-09 14:16:00,74.2,57.0,30.13,NE,44,0.0,5.0,55,0.00,,FEW038,0.00,VWS V14.01,2013-02-09 19:16:00,
2013-02-09 14:21:00,75.4,57.6,30.13,WNW,300,0.0,5.0,54,0.00,,FEW038,0.00,VWS V14.01,2013-02-09 19:21:00,
2013-02-09 14:26:00,76.5,57.6,30.13,SW,224,1.0,5.0,52,0.00,,FEW038,0.00,VWS V14.01,2013-02-09 19:26:00,
2013-02-09 14:32:00,77.1,58.1,30.13,West,278,0.0,5.0,52,0.00,,FEW038,0.00,VWS V14.01,2013-02-09 19:32:00,
2013-02-09 14:37:00,77.5,58.0,30.13,WSW,255,1.0,4.0,51,0.00,,FEW038,0.00,VWS V14.01,2013-02-09 19:37:00,
2013-02-09 14:42:00,77.7,58.2,30.13,West,271,1.0,4.0,51,0.00,,FEW038,0.00,VWS V14.01,2013-02-09 19:42:00,
2013-02-09 14:47:00,77.5,57.4,30.13,West,276,1.0,4.0,50,0.00,,BKN039,0.00,VWS V14.01,2013-02-09 19:47:00,
2013-02-09 14:52:00,77.6,58.6,30.13,ENE,74,2.0,4.0,52,0.00,,BKN039,0.00,VWS V14.01,2013-02-09 19:52:00,
2013-02-09 14:57:00,76.7,57.8,30.13,WSW,245,0.0,4.0,52,0.00,,BKN039,0.00,VWS V14.01,2013-02-09 19:57:00,
2013-02-09 15:02:00,75.6,57.8,30.13,NE,44,0.0,4.0,54,0.00,,BKN039,0.00,VWS V14.01,2013-02-09 20:02:00,
2013-02-09 15:08:00,75.9,58.1,30.13,WNW,293,0.0,2.0,54,0.00,,BKN039,0.00,VWS V14.01,2013-02-09 20:08:00,
2013-02-09 15:13:00,76.1,58.8,30.13,SE,132,0.0,4.0,55,0.00,,BKN039,0.00,VWS V14.01,2013-02-09 20:13:00,
2013-02-09 15:18:00,75.4,57.6,30.13,SE,133,0.0,4.0,54,0.00,,BKN039,0.00,VWS V14.01,2013-02-09 20:18:00,
2013-02-09 15:23:00,74.1,57.4,30.13,NNE,26,0.0,4.0,56,0.00,,BKN039,0.00,VWS V14.01,2013-02-09 20:23:00,
2013-02-09 15:28:00,73.4,57.7,30.13,SW,229,1.0,4.0,58,0.00,,BKN039,0.00,VWS V14.01,2013-02-09 20:28:00,
2013-02-09 15:33:00,74.1,58.9,30.13,ENE,68,0.0,4.0,59,0.00,,BKN039,0.00,VWS V14.01,2013-02-09 20:33:00,
2013-02-09 15:38:00,74.9,58.7,30.13,NNE,33,0.0,2.0,57,0.00,,BKN039,0.00,VWS V14.01,2013-02-09 20:38:00,
2013-02-09 15:43:00,75.0,58.8,30.13,NW,306,1.0,5.0,57,0.00,,BKN039,0.00,VWS V14.01,2013-02-09 20:43:00,
2013-02-09 15:49:00,74.9,58.7,30.12,NNW,341,0.0,5.0,57,0.00,,FEW045,0.00,VWS V14.01,2013-02-09 20:49:00,
2013-02-09 15:54:00,74.7,59.0,30.13,ENE,78,0.0,5.0,58,0.00,,FEW045,0.00,VWS V14.01,2013-02-09 20:54:00,
2013-02-09 15:59:00,73.7,58.0,30.13,SE,132,0.0,5.0,58,0.00,,FEW045,0.00,VWS V14.01,2013-02-09 20:59:00,
2013-02-09 16:04:00,72.8,57.7,30.13,WNW,285,0.0,5.0,59,0.00,,FEW045,0.00,VWS V14.01,2013-02-09 21:04:00,
2013-02-09 16:09:00,72.6,57.9,30.13,SW,232,0.0,3.0,60,0.00,,FEW045,0.00,VWS V14.01,2013-02-09 21:09:00,
2013-02-09 16:14:00,72.6,57.9,30.14,SSE,161,1.0,3.0,60,0.00,,FEW045,0.00,VWS V14.01,2013-02-09 21:14:00,
2013-02-09 16:19:00,72.6,58.4,30.14,WSW,248,2.0,3.0,61,0.00,,FEW045,0.00,VWS V14.01,2013-02-09 21:19:00,
2013-02-09 16:24:00,72.6,57.9,30.14,NW,311,1.0,3.0,60,0.00,,FEW045,0.00,VWS V14.01,2013-02-09 21:24:00,
2013-02-09 16:29:00,72.6,57.9,30.14,WSW,250,0.0,3.0,60,0.00,,FEW045,0.00,VWS V14.01,2013-02-09 21:29:00,
2013-02-09 16:35:00,72.4,58.2,30.14,NNW,337,0.0,0.0,61,0.00,,FEW045,0.00,VWS V14.01,2013-02-09 21:35:00,
2013-02-09 16:40:00,72.5,58.3,30.14,West,267,0.0,2.0,61,0.00,,FEW045,0.00,VWS V14.01,2013-02-09 21:40:00,
2013-02-09 16:45:00,72.1,57.9,30.14,NE,55,0.0,3.0,61,0.00,,FEW045,0.00,VWS V14.01,2013-02-09 21:45:00,
2013-02-09 16:50:00,71.4,57.7,30.14,SE,146,0.0,3.0,62,0.00,,BKN044,0.00,VWS V14.01,2013-02-09 21:50:00,
2013-02-09 16:55:00,71.4,57.7,30.14,NW,305,0.0,3.0,62,0.00,,BKN044,0.00,VWS V14.01,2013-02-09 21:55:00,
2013-02-09 17:00:00,71.7,58.0,30.14,NW,319,1.0,3.0,62,0.00,,BKN044,0.00,VWS V14.01,2013-02-09 22:00:00,
2013-02-09 17:05:00,71.7,57.1,30.14,NNE,27,0.0,0.0,60,0.00,,BKN044,0.00,VWS V14.01,2013-02-09 22:05:00,
2013-02-09 17:10:00,72.0,57.8,30.15,WSW,257,0.0,1.0,61,0.00,,BKN044,0.00,VWS V14.01,2013-02-09 22:10:00,
2013-02-09 17:15:00,71.9,57.3,30.15,SW,224,0.0,1.0,60,0.00,,BKN044,0.00,VWS V14.01,2013-02-09 22:15:00,
2013-02-09 17:20:00,71.8,57.2,30.15,West,274,0.0,1.0,60,0.00,,BKN044,0.00,VWS V14.01,2013-02-09 22:20:00,
2013-02-09 17:25:00,71.4,57.3,30.15,WSW,251,0.0,1.0,61,0.00,,BKN044,0.00,VWS V14.01,2013-02-09 22:25:00,
2013-02-09 17:30:00,70.7,56.6,30.15,WSW,253,0.0,1.0,61,0.00,,BKN044,0.00,VWS V14.01,2013-02-09 22:30:00,
2013-02-09 17:36:00,69.9,56.8,30.15,SSW,203,0.0,0.0,63,0.00,,BKN044,0.00,VWS V14.01,2013-02-09 22:36:00,
2013-02-09 17:41:00,69.2,56.5,30.15,West,276,0.0,2.0,64,0.00,,BKN044,0.00,VWS V14.01,2013-02-09 22:41:00,
2013-02-09 17:46:00,68.6,56.4,30.15,SW,235,0.0,2.0,65,0.00,,FEW041,0.00,VWS V14.01,2013-02-09 22:46:00,
2013-02-09 17:51:00,68.1,56.3,30.15,South,183,0.0,2.0,66,0.00,,FEW041,0.00,VWS V14.01,2013-02-09 22:51:00,
2013-02-09 17:56:00,67.7,56.4,30.15,South,183,0.0,2.0,67,0.00,,FEW041,0.00,VWS V14.01,2013-02-09 22:56:00,
2013-02-09 18:01:00,67.3,56.4,30.15,East,97,0.0,3.0,68,0.00,,FEW041,0.00,VWS V14.01,2013-02-09 23:01:00,
2013-02-09 18:06:00,66.9,56.4,30.15,ENE,75,0.0,1.0,69,0.00,,FEW041,0.00,VWS V14.01,2013-02-09 23:06:00,
2013-02-09 18:11:00,66.5,56.4,30.15,NE,44,0.0,1.0,70,0.00,,FEW041,0.00,VWS V14.01,2013-02-09 23:11:00,
2013-02-09 18:17:00,66.0,56.3,30.15,WNW,290,0.0,2.0,71,0.00,,FEW041,0.00,VWS V14.01,2013-02-09 23:17:00,
2013-02-09 18:22:00,65.7,56.4,30.16,WSW,245,0.0,2.0,72,0.00,,FEW041,0.00,VWS V14.01,2013-02-09 23:22:00,
2013-02-09 18:27:00,65.3,56.4,30.16,NNE,22,0.0,2.0,73,0.00,,FEW041,0.00,VWS V14.01,2013-02-09 23:27:00,
2013-02-09 18:32:00,64.9,56.0,30.16,NNE,23,0.0,2.0,73,0.00,,FEW041,0.00,VWS V14.01,2013-02-09 23:32:00,
2013-02-09 18:37:00,64.7,56.2,30.16,NNE,32,0.0,0.0,74,0.00,,FEW041,0.00,VWS V14.01,2013-02-09 23:37:00,
2013-02-09 18:42:00,64.4,56.3,30.16,NNE,32,0.0,0.0,75,0.00,,FEW041,0.00,VWS V14.01,2013-02-09 23:42:00,
2013-02-09 18:47:00,64.0,55.9,30.16,NNE,32,0.0,0.0,75,0.00,,CLR,0.00,VWS V14.01,2013-02-09 23:47:00,
2013-02-09 18:52:00,63.5,55.8,30.16,NNE,30,0.0,0.0,76,0.00,,CLR,0.00,VWS V14.01,2013-02-09 23:52:00,
2013-02-09 18:57:00,63.0,55.7,30.16,NNE,30,0.0,0.0,77,0.00,,CLR,0.00,VWS V14.01,2013-02-09 23:57:00,
2013-02-09 19:03:00,62.5,55.6,30.16,NNE,30,0.0,0.0,78,0.00,,CLR,0.00,VWS V14.01,2013-02-10 00:03:00,
2013-02-09 19:08:00,62.1,55.5,30.16,NNE,30,0.0,1.0,79,0.00,,CLR,0.00,VWS V14.01,2013-02-10 00:08:00,
2013-02-09 19:13:00,61.8,55.6,30.16,NNE,30,0.0,1.0,80,0.00,,CLR,0.00,VWS V14.01,2013-02-10 00:13:00,
2013-02-09 19:18:00,61.6,55.4,30.16,NNE,30,0.0,1.0,80,0.00,,CLR,0.00,VWS V14.01,2013-02-10 00:18:00,
2013-02-09 19:23:00,61.3,55.4,30.16,NNE,30,0.0,1.0,81,0.00,,CLR,0.00,VWS V14.01,2013-02-10 00:23:00,
2013-02-09 19:28:00,61.0,55.5,30.17,NNE,30,0.0,1.0,82,0.00,,CLR,0.00,VWS V14.01,2013-02-10 00:28:00,
2013-02-09 19:33:00,60.7,55.2,30.17,NNE,30,0.0,1.0,82,0.00,,CLR,0.00,VWS V14.01,2013-02-10 00:33:00,
2013-02-09 19:39:00,60.5,55.0,30.17,NNE,30,0.0,0.0,82,0.00,,CLR,0.00,VWS V14.01,2013-02-10 00:39:00,
2013-02-09 19:44:00,60.5,55.3,30.17,NNE,30,0.0,0.0,83,0.00,,CLR,0.00,VWS V14.01,2013-02-10 00:44:00,
2013-02-09 19:49:00,60.3,55.1,30.17,NNE,30,0.0,0.0,83,0.00,,CLR,0.00,VWS V14.01,2013-02-10 00:49:00,
2013-02-09 19:54:00,60.1,54.9,30.17,NNE,30,0.0,0.0,83,0.00,,CLR,0.00,VWS V14.01,2013-02-10 00:54:00,
2013-02-09 19:59:00,60.1,54.9,30.17,NNE,30,0.0,0.0,83,0.00,,CLR,0.00,VWS V14.01,2013-02-10 00:59:00,
2013-02-09 20:04:00,59.9,55.1,30.17,NNE,30,0.0,0.0,84,0.00,,CLR,0.00,VWS V14.01,2013-02-10 01:04:00,
2013-02-09 20:09:00,59.6,54.8,30.17,NNE,30,0.0,0.0,84,0.00,,CLR,0.00,VWS V14.01,2013-02-10 01:09:00,
2013-02-09 20:15:00,59.3,54.8,30.17,NNE,30,0.0,0.0,85,0.00,,CLR,0.00,VWS V14.01,2013-02-10 01:15:00,
2013-02-09 20:20:00,59.1,54.6,30.17,NNE,30,0.0,0.0,85,0.00,,CLR,0.00,VWS V14.01,2013-02-10 01:20:00,
2013-02-09 20:25:00,59.0,54.8,30.17,NNE,18,0.0,0.0,86,0.00,,CLR,0.00,VWS V14.01,2013-02-10 01:25:00,
2013-02-09 20:30:00,59.1,54.6,30.17,NW,317,0.0,0.0,85,0.00,,CLR,0.00,VWS V14.01,2013-02-10 01:30:00,
2013-02-09 20:35:00,59.0,54.5,30.18,NW,317,0.0,0.0,85,0.00,,CLR,0.00,VWS V14.01,2013-02-10 01:35:00,
2013-02-09 20:40:00,58.8,54.6,30.18,NW,317,0.0,0.0,86,0.00,,CLR,0.00,VWS V14.01,2013-02-10 01:40:00,
2013-02-09 20:46:00,58.6,54.4,30.18,NW,318,0.0,0.0,86,0.00,,CLR,0.00,VWS V14.01,2013-02-10 01:46:00,
2013-02-09 20:51:00,58.4,54.2,30.18,NW,317,0.0,0.0,86,0.00,,CLR,0.00,VWS V14.01,2013-02-10 01:51:00,
2013-02-09 20:56:00,58.3,54.5,30.18,NW,316,0.0,0.0,87,0.00,,CLR,0.00,VWS V14.01,2013-02-10 01:56:00,
2013-02-09 21:01:00,58.2,54.4,30.18,NW,316,0.0,0.0,87,0.00,,CLR,0.00,VWS V14.01,2013-02-10 02:01:00,
2013-02-09 21:06:00,58.0,54.2,30.18,NW,316,0.0,0.0,87,0.00,,CLR,0.00,VWS V14.01,2013-02-10 02:06:00,
2013-02-09 21:11:00,58.0,54.2,30.19,WNW,283,0.0,0.0,87,0.00,,CLR,0.00,VWS V14.01,2013-02-10 02:11:00,
2013-02-09 21:16:00,57.9,54.1,30.19,SSW,207,0.0,0.0,87,0.00,,CLR,0.00,VWS V14.01,2013-02-10 02:16:00,
2013-02-09 21:21:00,57.9,54.1,30.19,ESE,105,0.0,0.0,87,0.00,,CLR,0.00,VWS V14.01,2013-02-10 02:21:00,
2013-02-09 21:26:00,57.9,54.4,30.19,ESE,104,0.0,0.0,88,0.00,,CLR,0.00,VWS V14.01,2013-02-10 02:26:00,
2013-02-09 21:32:00,57.8,54.3,30.19,ENE,76,0.0,0.0,88,0.00,,CLR,0.00,VWS V14.01,2013-02-10 02:32:00,
2013-02-09 21:37:00,57.6,54.1,30.19,ENE,77,0.0,0.0,88,0.00,,CLR,0.00,VWS V14.01,2013-02-10 02:37:00,
2013-02-09 21:42:00,57.4,53.9,30.19,ENE,76,0.0,0.0,88,0.00,,CLR,0.00,VWS V14.01,2013-02-10 02:42:00,
2013-02-09 21:47:00,57.1,53.9,30.19,ENE,77,0.0,0.0,89,0.00,,CLR,0.00,VWS V14.01,2013-02-10 02:47:00,
2013-02-09 21:52:00,56.8,53.6,30.19,ENE,77,0.0,0.0,89,0.00,,CLR,0.00,VWS V14.01,2013-02-10 02:52:00,
2013-02-09 21:57:00,56.6,53.7,30.19,ENE,77,0.0,0.0,90,0.00,,CLR,0.00,VWS V14.01,2013-02-10 02:57:00,
2013-02-09 22:03:00,56.3,53.4,30.19,ENE,77,0.0,0.0,90,0.00,,CLR,0.00,VWS V14.01,2013-02-10 03:03:00,
2013-02-09 22:08:00,56.0,53.1,30.19,ENE,77,0.0,0.0,90,0.00,,CLR,0.00,VWS V14.01,2013-02-10 03:08:00,
2013-02-09 22:13:00,55.8,53.2,30.19,ENE,76,0.0,0.0,91,0.00,,CLR,0.00,VWS V14.01,2013-02-10 03:13:00,
2013-02-09 22:18:00,55.6,53.0,30.19,ENE,76,0.0,0.0,91,0.00,,CLR,0.00,VWS V14.01,2013-02-10 03:18:00,
2013-02-09 22:23:00,55.4,53.1,30.19,ENE,76,0.0,0.0,92,0.00,,CLR,0.00,VWS V14.01,2013-02-10 03:23:00,
2013-02-09 22:28:00,55.2,52.9,30.19,ENE,76,0.0,0.0,92,0.00,,CLR,0.00,VWS V14.01,2013-02-10 03:28:00,
2013-02-09 22:33:00,55.1,53.1,30.19,ENE,77,0.0,0.0,93,0.00,,CLR,0.00,VWS V14.01,2013-02-10 03:33:00,
2013-02-09 22:38:00,54.8,52.5,30.19,ENE,77,0.0,0.0,92,0.00,,CLR,0.00,VWS V14.01,2013-02-10 03:38:00,
2013-02-09 22:44:00,54.6,52.6,30.20,ENE,77,0.0,0.0,93,0.00,,CLR,0.00,VWS V14.01,2013-02-10 03:44:00,
2013-02-09 22:49:00,54.4,52.4,30.20,ENE,77,0.0,0.0,93,0.00,,CLR,0.00,VWS V14.01,2013-02-10 03:49:00,
2013-02-09 22:54:00,54.2,52.2,30.20,ENE,76,0.0,0.0,93,0.00,,CLR,0.00,VWS V14.01,2013-02-10 03:54:00,
2013-02-09 22:59:00,54.1,52.4,30.20,ENE,76,0.0,0.0,94,0.00,,CLR,0.00,VWS V14.01,2013-02-10 03:59:00,
2013-02-09 23:04:00,54.0,52.3,30.20,ENE,77,0.0,0.0,94,0.00,,CLR,0.00,VWS V14.01,2013-02-10 04:04:00,
2013-02-09 23:09:00,54.0,52.6,30.19,ENE,76,0.0,0.0,95,0.00,,CLR,0.00,VWS V14.01,2013-02-10 04:09:00,
2013-02-09 23:14:00,54.1,52.7,30.20,ENE,76,0.0,0.0,95,0.00,,CLR,0.00,VWS V14.01,2013-02-10 04:14:00,
2013-02-09 23:19:00,54.2,52.8,30.20,ENE,76,0.0,0.0,95,0.00,,CLR,0.00,VWS V14.01,2013-02-10 04:19:00,
2013-02-09 23:24:00,54.2,52.8,30.19,ENE,77,0.0,0.0,95,0.00,,CLR,0.00,VWS V14.01,2013-02-10 04:24:00,
2013-02-09 23:29:00,54.2,52.8,30.19,ENE,77,0.0,0.0,95,0.00,,CLR,0.00,VWS V14.01,2013-02-10 04:29:00,
2013-02-09 23:35:00,54.2,52.8,30.20,ENE,76,0.0,0.0,95,0.00,,CLR,0.00,VWS V14.01,2013-02-10 04:35:00,
2013-02-09 23:40:00,54.1,52.7,30.20,ENE,76,0.0,0.0,95,0.00,,CLR,0.00,VWS V14.01,2013-02-10 04:40:00,
2013-02-09 23:45:00,53.9,52.5,30.20,ENE,76,0.0,0.0,95,0.00,,CLR,0.00,VWS V14.01,2013-02-10 04:45:00,
2013-02-09 23:50:00,53.9,52.5,30.20,ENE,76,0.0,0.0,95,0.00,,CLR,0.00,VWS V14.01,2013-02-10 04:50:00,
2013-02-09 23:55:00,53.9,52.8,30.19,ENE,76,0.0,0.0,96,0.00,,CLR,0.00,VWS V14.01,2013-02-10 04:55:00,